Location: Strada George Coșbuc
(47.6577°N, 23.5639°E)
Time: 01:16:13
(UTC+03:00)

ISS - Pass Details

Date: 14 September 2017
Orbit: 401 x 407 km, 51.6° (Epoch: 23 September)

Event Time Altitude Azimuth Distance (km) Brightness Sun altitude
Exits shadow 05:36:46 18° 302° (WNW) 1,103 -2.0 -14.6°
Maximum altitude 05:38:58 44° 9° (N) 578 -2.8 -14.3°
Drops below altitude 10° 05:42:09 10° 84° (E) 1,471 0.3 -13.8°
Sets 05:44:18 0° 91° (E) 2,330 1.4 -13.5°
